This demonstration page uses our WeatherBlox Daily Observations layout. Learn more.

Left ArrowRight Arrow

44.31136, -96.79839

Hourly Observations for August 14, 2018

Temp ( °F °C ) Dew Point ( °F °C ) Humidity (%) Winds ( mph kmh ) Pressure ( in mb ) Visibility ( mi km ) Precip ( " mm )
12:56 am 00:56 Clear 71 21.7 69 20.6 94 94 SE 8 13 29.97 1015 10 16 0.00 0.00
1:56 am 01:56 Clear 71 21.7 69 20.6 94 94 SE 6 9 29.96 1015 10 16 0.00 0.00
2:56 am 02:56 Clear 70 21.1 68 20 93 93 ESE 5 7 29.96 1015 9 14 0.00 0.00
3:56 am 03:56 Clear 69 20.6 68 20 96 96 SE 7 11 29.94 1014 7 11 0.00 0.00
4:56 am 04:56 Clear with Mist and Fog 68 20 67 19.4 96 96 SE 3 6 29.95 1014 6 10 0.00 0.00
5:56 am 05:56 Clear 69 20.6 68 20 96 96 E 5 7 29.95 1014 7 11 0.00 0.00
6:56 am 06:56 Sunny with Mist and Fog 68 20 67 19.4 96 96 SE 3 6 29.95 1014 4 6 0.00 0.00
7:56 am 07:56 Sunny with Mist and Fog 70 21.1 68 20 93 93 NNE 6 9 29.95 1014 6 10 0.00 0.00
8:23 am 08:23 Partly Cloudy with Mist and Fog 70 21 68 20 94 94 NE 5 7 29.91 1013 6 10 0.00 0.00
8:56 am 08:56 Mostly Sunny 72 22.2 69 20.6 91 91 NNE 5 7 29.96 1015 7 11 0.00 0.00
9:22 am 09:22 Mostly Cloudy 70 21 64 18 83 83 NE 9 15 29.91 1013 10 16 0.00 0.00
9:56 am 09:56 Cloudy 70 21.1 65 18.3 84 84 NE 10 17 29.99 1016 10 16 0.00 0.00
10:13 am 10:13 Cloudy 70 21 64 18 83 83 NE 12 19 29.91 1013 10 16 0.00 0.00
10:56 am 10:56 Cloudy 69 20.6 62 16.7 78 78 NE 8 13 30.00 1016 10 16 0.00 0.00
11:56 am 11:56 Cloudy 73 22.8 65 18.3 76 76 NNE 5 7 29.99 1016 10 16 0.00 0.00
12:15 pm 12:15 Partly Cloudy 73 23 66 19 78 78 VRB 5 7 29.91 1013 10 16 0.00 0.00
12:56 pm 12:56 Sunny 77 25 68 20 74 74 NNE 6 9 29.98 1015 10 16 0.00 0.00
1:56 pm 13:56 Mostly Cloudy 78 25.6 69 20.6 74 74 NE 9 15 29.97 1015 10 16 0.00 0.00
2:56 pm 14:56 Mostly Cloudy 76 24.4 68 20 77 77 NE 9 15 29.97 1015 10 16 0.00 0.00
3:08 pm 15:08 Partly Cloudy 75 24 68 20 78 78 NE 8 13 29.88 1012 10 16 0.00 0.00
3:56 pm 15:56 Mostly Sunny 74 23.3 68 20 82 82 NNE 9 15 29.97 1015 10 16 0.00 0.00
4:56 pm 16:56 Mostly Cloudy 76 24.4 69 20.6 79 79 NNE 10 17 29.95 1014 10 16 0.00 0.00
5:56 pm 17:56 Mostly Cloudy 75 23.9 68 20 79 79 NNE 7 11 29.97 1015 10 16 0.00 0.00
6:56 pm 18:56 Cloudy 74 23.3 68 20 82 82 NE 6 9 29.98 1015 10 16 0.00 0.00
7:56 pm 19:56 Cloudy 72 22.2 67 19.4 84 84 NE 8 13 29.98 1015 10 16 0.00 0.00
8:56 pm 20:56 Partly Cloudy 68 20 63 17.2 84 84 ENE 9 15 29.98 1015 10 16 0.00 0.00
9:56 pm 21:56 Clear 67 19.4 63 17.2 87 87 NE 6 9 29.99 1016 10 16 0.00 0.00
10:51 pm 22:51 Mostly Cloudy 66 19 63 17 88 88 N 6 9 29.91 1013 10 16 0.00 0.00
10:56 pm 22:56 Mostly Cloudy 66 18.9 63 17.2 90 90 NNE 6 9 30.00 1016 10 16 0.00 0.00
11:03 pm 23:03 Cloudy 66 19 63 17 88 88 NNE 5 7 29.91 1013 10 16 0.00 0.00
11:56 pm 23:56 Cloudy 66 18.9 63 17.2 90 90 NE 5 7 30.01 1016 10 16 0.00 0.00

Powered by AerisWeather